This demonstration page uses our WeatherBlox Daily Observations layout. Learn more.

39.01783, -85.05884

Hourly Observations for January 4, 2019

Temp ( °F °C ) Dew Point ( °F °C ) Humidity (%) Winds ( mph kmh ) Pressure ( in mb ) Visibility ( mi km ) Precip ( " mm )
12:52 am 00:52 Cloudy with Mist and Fog 33 0.6 30 -1.1 89 89 Calm 30 1016 6 9.656064 0 0
1:52 am 01:52 Cloudy 32 0 29 -1.7 88 88 S 5 7 30 1016 7 11.265408 0 0
2:52 am 02:52 Cloudy with Mist and Fog 33 0.6 29 -1.7 85 85 Calm 29.97 1015 6 9.656064 0 0
3:52 am 03:52 Cloudy with Mist and Fog 33 0.6 30 -1.1 89 89 S 3 6 29.97 1015 6 9.656064 0 0
4:52 am 04:52 Cloudy with Mist and Fog 33 0.6 29 -1.7 85 85 E 5 7 29.94 1014 6 9.656064 0 0
5:52 am 05:52 Cloudy with Mist and Fog 34 1.1 30 -1.1 85 85 ESE 3 6 29.91 1013 5 8.04672 0 0
6:52 am 06:52 Cloudy with Mist and Fog 33 0.6 30 -1.1 89 89 E 5 7 29.88 1012 5 8.04672 0 0
7:52 am 07:52 Cloudy with Mist and Fog 34 1.1 31 -0.6 89 89 E 5 7 29.88 1012 5 8.04672 0 0
8:52 am 08:52 Mostly Cloudy with Mist and Fog 35 1.7 31 -0.6 85 85 SE 6 9 29.85 1011 5 8.04672 0 0
9:52 am 09:52 Mostly Cloudy with Mist and Fog 36 2.2 32 0 86 86 E 7 11 29.85 1011 6 9.656064 0 0
10:52 am 10:52 Mostly Cloudy 43 6.1 34 1.1 71 71 E 7 11 29.85 1011 8 12.874752 0 0
11:52 am 11:52 Partly Cloudy 47 8.3 30 -1.1 52 52 E 13 20 29.77 1008 10 16.09344 0 0
12:52 pm 12:52 Mostly Cloudy 50 10 31 -0.6 48 48 NE 14 22 29.71 1006 10 16.09344 0 0
1:52 pm 13:52 Mostly Cloudy 50 10 29 -1.7 44 44 NE 15 24 29.65 1004 10 16.09344 0 0
2:52 pm 14:52 Mostly Cloudy with Light Rain 50 10 30 -1.1 46 46 ENE 14 22 29.62 1003 10 16.09344 0.001 0.001
3:52 pm 15:52 Cloudy with Light Rain 48 8.9 35 1.7 61 61 NE 10 17 29.59 1002 7 11.265408 0.001 0.001
4:52 pm 16:52 Cloudy with Light Rain 46 7.8 37 2.8 71 71 NNE 10 17 29.59 1002 5 8.04672 0.02 0.508
5:11 pm 17:11 Cloudy with Heavy Rain 45 7.2 38 3.3 77 77 N 6 9 29.59 1002 1.75 2.816352 0.06 1.524
5:29 pm 17:29 Cloudy with Rain 43 6.1 40 4.4 89 89 NW 8 13 29.62 1003 2 3.218688 0.15 3.81
5:36 pm 17:36 Cloudy with Light Rain 43 6.1 40 4.4 89 89 NNW 9 15 29.59 1002 4 6.437376 0.15 3.81
5:52 pm 17:52 Cloudy with Light Rain 43 6.1 40 4.4 89 89 N 9 15 29.59 1002 5 8.04672 0.17 4.318
6:52 pm 18:52 Cloudy with Rain 41 5 38 3.3 89 89 N 18 30 29.62 1003 3 4.828032 0.01 0.254
7:14 pm 19:14 Cloudy with Light Rain 41 5 38 3.3 89 89 NNE 17 28 29.65 1004 5 8.04672 0.02 0.508
7:52 pm 19:52 Cloudy with Light Rain 40 4.4 37 2.8 89 89 NE 13 20 29.62 1003 10 16.09344 0.03 0.762
8:52 pm 20:52 Cloudy 41 5 38 3.3 89 89 N 6 9 29.62 1003 10 16.09344 0.02 0.508
9:06 pm 21:06 Cloudy 41 5 38 3.3 89 89 N 5 7 29.68 1005 10 16.09344 0 0
9:18 pm 21:18 Cloudy 40 4.4 38 3.3 93 93 NNW 8 13 29.65 1004 7 11.265408 0 0
9:52 pm 21:52 Cloudy 40 4.4 38 3.3 93 93 NNW 9 15 29.65 1004 10 16.09344 0.001 0.001
10:35 pm 22:35 Cloudy with Light Rain 40 4.4 37 2.8 89 89 NNW 6 9 29.68 1005 3 4.828032 0.01 0.254
10:49 pm 22:49 Cloudy with Rain 39 4 37 3 93 93 NW 3 6 29.68 1005 2.5 4.02336 0.02 0.508
10:52 pm 22:52 Cloudy with Rain 40 4.4 38 3.3 93 93 NW 3 6 29.65 1004 2 3.218688 0.03 0.762
10:57 pm 22:57 Cloudy with Rain 40 4.4 38 3.3 93 93 NW 3 6 29.68 1005 2 3.218688 0.01 0.254
11:15 pm 23:15 Cloudy with Light Rain 40 4.4 38 3.3 93 93 WNW 6 9 29.68 1005 4 6.437376 0.03 0.762
11:52 pm 23:52 Cloudy with Light Rain 39 3.9 37 2.8 93 93 WNW 9 15 29.65 1004 6 9.656064 0.07 1.778

Powered by AerisWeather